When you browse on this site, cookies collect data to enhance your experience and personalize the content and advertising you see.
Visit our Privacy Policy to learn more. By continuing to use the site, you agree to this use of cookies and data.
  • In Spain
  • List of Countries
  • For 7 days
  • Water Temperature
  • Weather Map
  • Weather Widgets
  • user-avatar
    Login

    Hourly Weather Molina

    Today, 25 January, Saturday

    Time Temperature Precipitation Wind Pressure Humidity
    00:00 +15°C° 0 mm 0 mps 738 mmHg 45%
    01:00 +14°C° 0 mm 0 mps 738 mmHg 47%
    02:00 +13°C° 0 mm 0 mps 738 mmHg 47%
    03:00 +13°C° 0 mm 0 mps 738 mmHg 47%
    04:00 +12°C° 0 mm 0 mps 738 mmHg 47%
    05:00 +15°C° 0 mm 1 mps 739 mmHg 43%
    06:00 +18°C° 0 mm 1 mps 739 mmHg 38%
    07:00 +21°C° 0 mm 1 mps 739 mmHg 33%
    08:00 +24°C° 0 mm 2 mps 739 mmHg 28%
    09:00 +28°C° 0 mm 2 mps 739 mmHg 22%
    10:00 +31°C° 0 mm 3 mps 739 mmHg 16%
    11:00 +34°C° 0 mm 3 mps 739 mmHg 14%
    12:00 +36°C° 0 mm 3 mps 739 mmHg 11%
    13:00 +38°C° 0 mm 3 mps 739 mmHg 9%
    14:00 +38°C° 0 mm 4 mps 739 mmHg 9%
    15:00 +40°C° 0 mm 4 mps 739 mmHg 9%
    16:00 +40°C° 0 mm 4 mps 739 mmHg 9%
    17:00 +35°C° 0 mm 3 mps 739 mmHg 14%
    18:00 +30°C° 0 mm 2 mps 739 mmHg 20%
    19:00 +25°C° 0 mm 1 mps 739 mmHg 26%
    20:00 +24°C° 0 mm 1 mps 739 mmHg 30%
    21:00 +22°C° 0 mm 1 mps 739 mmHg 34%
    22:00 +20°C° 0 mm 1 mps 740 mmHg 38%
    23:00 +19°C° 0 mm 1 mps 739 mmHg 40%

    Tomorrow, 26 January, Sunday

    Time Temperature Precipitation Wind Pressure Humidity
    00:00 +17°C° 0 mm 0 mps 739 mmHg 42%
    01:00 +16°C° 0 mm 0 mps 739 mmHg 44%
    02:00 +15°C° 0 mm 0 mps 739 mmHg 46%
    03:00 +15°C° 0 mm 0 mps 739 mmHg 49%
    04:00 +15°C° 0 mm 1 mps 739 mmHg 51%
    05:00 +18°C° 0 mm 1 mps 739 mmHg 49%
    06:00 +20°C° 0 mm 1 mps 740 mmHg 48%
    07:00 +23°C° 0 mm 1 mps 740 mmHg 46%
    08:00 +26°C° 0 mm 1 mps 740 mmHg 39%
    09:00 +29°C° 0 mm 2 mps 740 mmHg 32%
    10:00 +32°C° 0 mm 2 mps 741 mmHg 26%
    11:00 +35°C° 0 mm 3 mps 740 mmHg 22%
    12:00 +37°C° 0 mm 3 mps 740 mmHg 19%
    13:00 +39°C° 0 mm 3 mps 740 mmHg 15%
    14:00 +40°C° 0 mm 4 mps 740 mmHg 16%
    15:00 +40°C° 0 mm 4 mps 740 mmHg 16%
    16:00 +40°C° 0 mm 5 mps 739 mmHg 17%
    17:00 +36°C° 0 mm 4 mps 739 mmHg 24%
    18:00 +31°C° 0 mm 3 mps 739 mmHg 31%
    19:00 +28°C° 0 mm 2 mps 739 mmHg 37%
    20:00 +26°C° 0 mm 2 mps 739 mmHg 43%
    21:00 +24°C° 0 mm 1 mps 739 mmHg 49%
    22:00 +20°C° 0 mm 0 mps 740 mmHg 55%
    23:00 +19°C° 0 mm 0 mps 739 mmHg 60%

    Day after tomorrow, 27 January, Monday

    Time Temperature Precipitation Wind Pressure Humidity
    00:00 +18°C° 0 mm 0 mps 739 mmHg 64%
    01:00 +17°C° 0 mm 0 mps 738 mmHg 68%
    02:00 +16°C° 0 mm 0 mps 738 mmHg 71%
    03:00 +16°C° 0 mm 0 mps 738 mmHg 73%
    04:00 +15°C° 0 mm 0 mps 738 mmHg 75%
    05:00 +19°C° 0 mm 1 mps 738 mmHg 67%
    06:00 +21°C° 0 mm 1 mps 738 mmHg 58%
    07:00 +23°C° 0 mm 2 mps 738 mmHg 50%
    08:00 +26°C° 0 mm 2 mps 738 mmHg 42%
    09:00 +29°C° 0 mm 3 mps 738 mmHg 34%
    10:00 +33°C° 0 mm 3 mps 738 mmHg 27%
    11:00 +35°C° 0 mm 3 mps 738 mmHg 23%
    12:00 +37°C° 0 mm 3 mps 738 mmHg 19%
    13:00 +39°C° 0 mm 3 mps 738 mmHg 16%
    14:00 +40°C° 0 mm 4 mps 738 mmHg 15%
    15:00 +40°C° 0 mm 5 mps 737 mmHg 15%
    16:00 +41°C° 0 mm 5 mps 737 mmHg 15%
    17:00 +36°C° 0 mm 4 mps 738 mmHg 21%
    18:00 +31°C° 0 mm 3 mps 738 mmHg 26%
    19:00 +28°C° 0 mm 2 mps 738 mmHg 31%
    20:00 +25°C° 0 mm 1 mps 738 mmHg 37%
    21:00 +23°C° 0 mm 1 mps 738 mmHg 42%
    22:00 +21°C° 0 mm 1 mps 738 mmHg 48%
    23:00 +18°C° 0 mm 0 mps 737 mmHg 52%

    28 January, Tuesday

    Time Temperature Precipitation Wind Pressure Humidity
    00:00 +17°C° 0 mm 0 mps 737 mmHg 56%
    01:00 +16°C° 0 mm 0 mps 737 mmHg 60%
    02:00 +15°C° 0 mm 0 mps 737 mmHg 60%
    03:00 +15°C° 0 mm 0 mps 737 mmHg 61%
    04:00 +15°C° 0 mm 1 mps 737 mmHg 62%
    05:00 +18°C° 0 mm 1 mps 737 mmHg 53%
    06:00 +20°C° 0 mm 1 mps 737 mmHg 44%
    07:00 +21°C° 0 mm 2 mps 737 mmHg 35%
    08:00 +25°C° 0 mm 2 mps 737 mmHg 29%
    09:00 +28°C° 0 mm 2 mps 737 mmHg 24%
    10:00 +31°C° 0 mm 3 mps 737 mmHg 18%
    11:00 +34°C° 0 mm 3 mps 737 mmHg 16%
    12:00 +36°C° 0 mm 3 mps 737 mmHg 13%
    13:00 +38°C° 0 mm 3 mps 737 mmHg 11%
    14:00 +37°C° 0 mm 5 mps 737 mmHg 13%
    15:00 +36°C° 0 mm 6 mps 737 mmHg 15%
    16:00 +37°C° 0 mm 8 mps 737 mmHg 17%
    17:00 +32°C° 0 mm 6 mps 737 mmHg 26%
    18:00 +27°C° 0 mm 4 mps 737 mmHg 36%
    19:00 +24°C° 0 mm 2 mps 737 mmHg 45%
    20:00 +22°C° 0 mm 1 mps 737 mmHg 54%
    21:00 +20°C° 0 mm 1 mps 738 mmHg 63%
    22:00 +18°C° 0 mm 1 mps 738 mmHg 72%
    23:00 +15°C° 0 mm 0 mps 737 mmHg 74%

    29 January, Wednesday

    Time Temperature Precipitation Wind Pressure Humidity
    00:00 +14°C° 0 mm 0 mps 737 mmHg 76%
    01:00 +14°C° 0 mm 0 mps 737 mmHg 79%
    02:00 +14°C° 0 mm 0 mps 737 mmHg 79%
    03:00 +14°C° 0 mm 0 mps 737 mmHg 79%
    04:00 +14°C° 0 mm 1 mps 737 mmHg 79%
    05:00 +16°C° 0 mm 1 mps 737 mmHg 73%
    06:00 +17°C° 0 mm 2 mps 738 mmHg 67%
    07:00 +18°C° 0 mm 2 mps 738 mmHg 60%
    08:00 +21°C° 0 mm 2 mps 738 mmHg 52%
    09:00 +25°C° 0 mm 3 mps 738 mmHg 43%
    10:00 +28°C° 0 mm 3 mps 738 mmHg 34%
    11:00 +30°C° 0 mm 3 mps 738 mmHg 30%
    12:00 +33°C° 0 mm 3 mps 738 mmHg 26%
    13:00 +35°C° 0 mm 3 mps 738 mmHg 22%
    14:00 +35°C° 0 mm 4 mps 738 mmHg 22%
    15:00 +35°C° 0 mm 4 mps 738 mmHg 21%
    16:00 +35°C° 0 mm 5 mps 738 mmHg 21%
    17:00 +32°C° 0 mm 4 mps 738 mmHg 27%
    18:00 +27°C° 0 mm 3 mps 738 mmHg 33%
    19:00 +24°C° 0 mm 1 mps 738 mmHg 39%
    20:00 +22°C° 0 mm 1 mps 738 mmHg 44%
    21:00 +20°C° 0 mm 1 mps 738 mmHg 49%
    22:00 +18°C° 0 mm 1 mps 739 mmHg 55%
    23:00 +15°C° 0 mm 0 mps 738 mmHg 58%

    30 January, Thursday

    Time Temperature Precipitation Wind Pressure Humidity
    00:00 +14°C° 0 mm 0 mps 737 mmHg 61%
    01:00 +13°C° 0 mm 0 mps 737 mmHg 64%
    02:00 +13°C° 0 mm 0 mps 737 mmHg 65%
    03:00 +13°C° 0 mm 1 mps 737 mmHg 65%
    04:00 +13°C° 0 mm 1 mps 737 mmHg 65%
    05:00 +15°C° 0 mm 1 mps 737 mmHg 57%
    06:00 +18°C° 0 mm 1 mps 737 mmHg 49%
    07:00 +20°C° 0 mm 1 mps 738 mmHg 41%
    08:00 +23°C° 0 mm 2 mps 738 mmHg 34%
    09:00 +27°C° 0 mm 2 mps 738 mmHg 27%
    10:00 +30°C° 0 mm 2 mps 738 mmHg 21%
    11:00 +33°C° 0 mm 3 mps 738 mmHg 18%
    12:00 +35°C° 0 mm 3 mps 738 mmHg 16%
    13:00 +37°C° 0 mm 3 mps 737 mmHg 13%
    14:00 +38°C° 0 mm 3 mps 737 mmHg 13%
    15:00 +38°C° 0 mm 4 mps 737 mmHg 13%
    16:00 +39°C° 0 mm 5 mps 737 mmHg 12%
    17:00 +34°C° 0 mm 4 mps 737 mmHg 18%
    18:00 +29°C° 0 mm 2 mps 738 mmHg 23%
    19:00 +25°C° 0 mm 1 mps 738 mmHg 28%
    20:00 +23°C° 0 mm 1 mps 738 mmHg 32%
    21:00 +21°C° 0 mm 1 mps 738 mmHg 36%
    22:00 +19°C° 0 mm 1 mps 738 mmHg 41%
    23:00 +18°C° 0 mm 1 mps 738 mmHg 44%
    Show more